Terminal Aerodrome Forecast
Issued by NWS

Home | Current Version | Previous Version | Text Only | Print | Product List | Glossary On
Versions: 1 2 3 4 5 6 7 8 9 10 11 12
000
FTPQ31 PGUM 301700
TAFPQ
TAF

PTYA 301720Z 3018/3118 24010KT P6SM VCSH SCT016 BKN130
      TEMPO 3018/3020 3SM TSRA BKN015CB OVC040=

USA.gov is the U.S. government's official web portal to all federal, state and local government web resources and services.